Flag Weather past 2 weeks in Surgut, Russia

Now
-22 °F

Clear.


Feels Like: -44 °F
Forecast: -23 / -7 °F
Wind: 10 mph from Northwest

Location: Surgut Airport

Current Time: Nov 28, 2014 at 2:13:11 AM

Latest Report: Nov 28, 2014 at 1:30 AM


Visibility: 4 mi

Pressure: 30.39 "Hg

Humidity: 68%

Dew point: -29 °F

Location of SurgutLocation

Historic Weather in Surgut — Graph

°F

Surgut temperature yesterday

Maximum temperature yesterday: -18 °F (at 12:00 AM)
Minimum temperature yesterday: -27 °F (at 7:00 AM)
Average temperature yesterday: -24 °F

Past Weeks' High & Low Weather Summary

 TemperatureHumidityPressure
High34 °F (Nov 13, 5:00 AM)100% (Nov 13, 3:00 AM)30.39 "Hg (Nov 13, 3:00 AM)
Low-27 °F (Nov 23, 5:00 AM)55% (Nov 27, 3:30 PM)29.36 "Hg (Nov 25, 5:30 PM)
Average5 °F82%29.81 "Hg
* Reported Nov 13 1:00 AM — Nov 28 1:00 AM, Surgut, Weather by CustomWeather, © 2014

Note: Actual official high and low records may vary slightly from our data, if they occured in-between our weather recording intervals... More about our weather records

Advertising

Surgut weather history for previous 24 hours

 ConditionsComfort  
Time TempWeatherWind HumidityBarometerVisibility
1:00 AM
Nov 28
-22 °FClear.8 mph68%30.39 "Hg4 mi
12:00 AM-22 °FClear.10 mph68%30.36 "Hg4 mi
11:30 PM
Nov 27
-22 °FClear.10 mph68%30.36 "Hg4 mi
11:00 PM-22 °FClear.10 mph68%30.36 "Hg4 mi
10:30 PM-20 °FClear.10 mph62%30.33 "Hg4 mi
10:00 PM-22 °FClear.13 mph68%30.33 "Hg4 mi
9:30 PM-22 °FClear.10 mph68%30.33 "Hg4 mi
9:00 PM-22 °FClear.10 mph68%30.30 "Hg4 mi
8:30 PM-22 °FClear.10 mph62%30.30 "Hg4 mi
8:00 PM-22 °FClear.13 mph62%30.30 "Hg4 mi
7:30 PM-22 °FClear.13 mph62%30.30 "Hg4 mi
7:00 PM-22 °FClear.13 mph62%30.27 "Hg4 mi
6:30 PM-24 °FClear.10 mph61%30.27 "Hg4 mi
6:00 PM-26 °FClear.10 mph67%30.27 "Hg4 mi
5:30 PM-26 °FClear.8 mph67%30.27 "Hg4 mi
5:00 PM-24 °FClear.10 mph61%30.24 "Hg4 mi
4:30 PM-24 °FClear.10 mph61%30.24 "Hg4 mi
4:00 PM-24 °FSunny.10 mph55%30.24 "Hg4 mi
3:30 PM-24 °FSunny.10 mph55%30.24 "Hg4 mi
3:00 PM-26 °FSunny.10 mph61%30.24 "Hg4 mi
2:30 PM-26 °FPassing clouds.10 mph61%30.24 "Hg4 mi
2:00 PM-26 °FPassing clouds.10 mph61%30.21 "Hg4 mi
1:30 PM-26 °FPassing clouds.15 mph61%30.21 "Hg4 mi
1:00 PM-26 °FPassing clouds.15 mph61%30.18 "Hg4 mi
12:30 PM-26 °FPassing clouds.15 mph61%30.18 "Hg4 mi
12:00 PM-26 °FSunny.15 mph61%30.18 "Hg4 mi
11:30 AM-27 °FSunny.13 mph67%30.18 "Hg4 mi
11:00 AM-27 °FSunny.13 mph67%30.18 "Hg4 mi
10:30 AM-27 °FSunny.10 mph67%30.15 "Hg4 mi
10:00 AM-27 °FSunny.13 mph67%30.15 "Hg4 mi
9:30 AM-27 °FClear.13 mph67%30.15 "Hg4 mi
9:00 AM-27 °FClear.13 mph67%30.15 "Hg4 mi
8:30 AM-27 °FClear.13 mph67%30.12 "Hg4 mi
8:00 AM-27 °FClear.13 mph67%30.12 "Hg4 mi
7:30 AM-27 °FClear.13 mph67%30.12 "Hg4 mi
7:00 AM-27 °FClear.13 mph67%30.09 "Hg4 mi
6:30 AM-26 °FClear.10 mph67%30.09 "Hg4 mi
6:00 AM-26 °FClear.10 mph67%30.07 "Hg4 mi
5:30 AM-26 °FClear.13 mph67%30.07 "Hg4 mi
4:30 AM-24 °FClear.10 mph61%30.04 "Hg4 mi
4:00 AM-24 °FClear.15 mph68%30.01 "Hg4 mi
3:30 AM-24 °FClear.10 mph68%30.01 "Hg4 mi
3:00 AM-24 °FPassing clouds.10 mph68%30.01 "Hg4 mi
2:30 AM-24 °FPassing clouds.10 mph68%29.98 "Hg4 mi
2:00 AM-24 °FClear.10 mph75%29.98 "Hg4 mi
Weather by CustomWeather, © 2014

See weather overviewHow to use our weather pages